SWA2568 KCMH-KDCA

Flight info

Callsign SWA2568
Flight time 0h 52m
Altitude 31000
Route OWEBO AIR BUCKO FRDMM6
Aircraft B738/M-SADE2E3GIJ4RWZ/LB1D1

Departure

Time 2026-05-04 02:47
Airport John Glenn Columbus International Airport (KCMH)

Arrival

Time 2026-05-04 03:39
Airport Ronald Reagan Washington National Airport (KDCA)
Time Latitude Longitude Altitude Speed Heading
2026-05-04 02:04 39.99654 -82.88549 811 ft 0 kts 28°
2026-05-04 02:35 39.99653 -82.88550 820 ft 1 kts 28°
2026-05-04 02:35 39.99638 -82.88560 817 ft 3 kts 26°
2026-05-04 02:36 39.99621 -82.88571 820 ft 3 kts 31°
2026-05-04 02:36 39.99606 -82.88587 817 ft 3 kts 58°
2026-05-04 02:36 39.99598 -82.88610 814 ft 3 kts 86°
2026-05-04 02:36 39.99598 -82.88623 814 ft 4 kts 94°
2026-05-04 02:40 39.99595 -82.88588 819 ft 6 kts 95°
2026-05-04 02:40 39.99592 -82.88536 818 ft 6 kts 94°
2026-05-04 02:40 39.99590 -82.88484 818 ft 6 kts 94°
2026-05-04 02:40 39.99587 -82.88432 818 ft 6 kts 94°
2026-05-04 02:41 39.99579 -82.88363 814 ft 9 kts 109°
2026-05-04 02:41 39.99538 -82.88314 818 ft 8 kts 154°
2026-05-04 02:41 39.99507 -82.88262 818 ft 1 kts 117°
2026-05-04 02:41 39.99504 -82.88251 816 ft 7 kts 105°
2026-05-04 02:42 39.99496 -82.88128 815 ft 20 kts 94°
2026-05-04 02:42 39.99486 -82.87923 823 ft 23 kts 95°
2026-05-04 02:42 39.99431 -82.87804 822 ft 14 kts 171°
2026-05-04 02:42 39.99375 -82.87885 821 ft 14 kts 269°
2026-05-04 02:43 39.99381 -82.88026 821 ft 20 kts 275°
2026-05-04 02:43 39.99392 -82.88232 819 ft 28 kts 275°
2026-05-04 02:43 39.99411 -82.88586 818 ft 49 kts 274°
2026-05-04 02:43 39.99436 -82.89026 821 ft 46 kts 274°
2026-05-04 02:44 39.99454 -82.89370 825 ft 35 kts 274°
2026-05-04 02:44 39.99472 -82.89678 822 ft 33 kts 274°
2026-05-04 02:44 39.99489 -82.89967 821 ft 31 kts 274°
2026-05-04 02:44 39.99505 -82.90248 818 ft 31 kts 274°
2026-05-04 02:45 39.99520 -82.90514 816 ft 28 kts 274°
2026-05-04 02:45 39.99526 -82.90707 813 ft 11 kts 259°
2026-05-04 02:45 39.99495 -82.90757 821 ft 5 kts 207°
2026-05-04 02:45 39.99455 -82.90772 822 ft 9 kts 189°
2026-05-04 02:46 39.99380 -82.90752 821 ft 22 kts 141°
2026-05-04 02:46 39.99335 -82.90407 820 ft 71 kts 94°
2026-05-04 02:46 39.99281 -82.89437 817 ft 141 kts 94°
2026-05-04 02:46 39.99198 -82.87991 1190 ft 169 kts 94°
2026-05-04 02:47 39.99191 -82.86382 1835 ft 189 kts 94°
2026-05-04 02:47 39.99327 -82.84594 2490 ft 207 kts 82°
2026-05-04 02:47 39.99718 -82.82710 3179 ft 221 kts 78°
2026-05-04 02:47 39.99859 -82.80699 3884 ft 226 kts 94°
2026-05-04 02:48 39.99843 -82.78633 4626 ft 228 kts 93°
2026-05-04 02:48 39.99782 -82.76558 5346 ft 230 kts 93°
2026-05-04 02:48 39.99818 -82.74480 6060 ft 229 kts 82°
2026-05-04 02:48 40.00002 -82.72429 6716 ft 236 kts 79°
2026-05-04 02:49 40.00226 -82.70159 7011 ft 268 kts 79°
2026-05-04 02:49 40.00471 -82.67602 7398 ft 295 kts 80°
2026-05-04 02:49 40.00713 -82.64904 8229 ft 304 kts 80°
2026-05-04 02:49 40.00949 -82.62143 9193 ft 308 kts 81°
2026-05-04 02:50 40.01179 -82.59342 10132 ft 312 kts 81°
2026-05-04 02:50 40.01409 -82.56480 10816 ft 326 kts 81°
2026-05-04 02:50 40.01655 -82.53414 11102 ft 352 kts 82°
2026-05-04 02:50 40.01905 -82.50214 11712 ft 364 kts 82°
2026-05-04 02:51 40.02159 -82.46901 12524 ft 370 kts 83°
2026-05-04 02:51 40.02414 -82.43537 13394 ft 374 kts 83°
2026-05-04 02:51 40.02671 -82.40133 14191 ft 380 kts 83°
2026-05-04 02:51 40.02931 -82.36686 14975 ft 383 kts 83°
2026-05-04 02:52 40.03193 -82.33198 15762 ft 387 kts 83°
2026-05-04 02:52 40.03454 -82.29717 16521 ft 392 kts 83°
2026-05-04 02:52 40.03724 -82.26105 17276 ft 397 kts 83°
2026-05-04 02:52 40.03989 -82.22541 18020 ft 402 kts 83°
2026-05-04 02:53 40.04259 -82.18894 18700 ft 406 kts 83°
2026-05-04 02:53 40.04532 -82.15206 19350 ft 411 kts 83°
2026-05-04 02:53 40.04806 -82.11472 19984 ft 415 kts 83°
2026-05-04 02:53 40.05082 -82.07698 20607 ft 420 kts 83°
2026-05-04 02:54 40.05360 -82.03880 21224 ft 425 kts 83°
2026-05-04 02:54 40.05639 -82.00024 21840 ft 429 kts 83°
2026-05-04 02:54 40.05921 -81.96120 22439 ft 434 kts 83°
2026-05-04 02:54 40.06205 -81.92167 23033 ft 438 kts 83°
2026-05-04 02:55 40.06775 -81.84163 24090 ft 447 kts 83°
2026-05-04 02:55 40.07063 -81.80099 24594 ft 450 kts 83°
2026-05-04 02:55 40.07350 -81.76017 25089 ft 453 kts 83°
2026-05-04 02:56 40.07627 -81.71943 25555 ft 457 kts 84°
2026-05-04 02:56 40.07643 -81.67765 26005 ft 462 kts 92°
2026-05-04 02:56 40.07385 -81.63564 26439 ft 467 kts 94°
2026-05-04 02:56 40.07069 -81.59316 26804 ft 473 kts 95°
2026-05-04 02:57 40.06741 -81.55027 27251 ft 476 kts 95°
2026-05-04 02:57 40.06423 -81.50716 27701 ft 479 kts 94°
2026-05-04 02:57 40.06116 -81.46371 28140 ft 482 kts 94°
2026-05-04 02:57 40.05820 -81.41998 28539 ft 485 kts 94°
2026-05-04 02:58 40.05531 -81.37651 28929 ft 488 kts 94°
2026-05-04 02:58 40.05235 -81.33153 29330 ft 492 kts 94°
2026-05-04 02:58 40.04944 -81.28759 29719 ft 494 kts 94°
2026-05-04 02:58 40.04645 -81.24272 30155 ft 496 kts 94°
2026-05-04 02:59 40.04343 -81.19776 30591 ft 495 kts 94°
2026-05-04 02:59 40.04039 -81.15304 31011 ft 495 kts 94°
2026-05-04 02:59 40.03731 -81.10798 31014 ft 498 kts 94°
2026-05-04 03:00 40.03112 -81.01839 31023 ft 492 kts 94°
2026-05-04 03:00 40.02494 -80.92944 31048 ft 493 kts 94°
2026-05-04 03:01 40.01472 -80.84153 31032 ft 495 kts 108°
2026-05-04 03:01 39.98412 -80.76146 31035 ft 492 kts 129°
2026-05-04 03:02 39.93845 -80.69583 31035 ft 489 kts 138°
2026-05-04 03:02 39.89083 -80.63238 31036 ft 489 kts 138°
2026-05-04 03:03 39.84353 -80.56854 31029 ft 490 kts 138°
2026-05-04 03:03 39.79674 -80.50469 31036 ft 490 kts 138°
2026-05-04 03:04 39.74967 -80.44035 31045 ft 491 kts 138°
2026-05-04 03:04 39.70256 -80.37610 31037 ft 491 kts 138°
2026-05-04 03:05 39.65538 -80.31194 31050 ft 491 kts 138°
2026-05-04 03:05 39.60810 -80.24781 31008 ft 491 kts 139°
2026-05-04 03:06 39.56091 -80.18399 31048 ft 490 kts 139°
2026-05-04 03:06 39.51397 -80.12054 31060 ft 490 kts 139°
2026-05-04 03:07 39.46664 -80.05668 31058 ft 490 kts 139°
2026-05-04 03:07 39.41930 -79.99291 31049 ft 491 kts 139°
2026-05-04 03:08 39.37220 -79.92970 31060 ft 491 kts 139°
2026-05-04 03:08 39.32476 -79.86617 31064 ft 490 kts 139°
2026-05-04 03:08 39.30371 -79.83110 31057 ft 501 kts 122°
2026-05-04 03:09 39.29033 -79.78945 30839 ft 508 kts 105°
2026-05-04 03:09 39.28563 -79.74411 30342 ft 509 kts 94°
2026-05-04 03:09 39.28303 -79.69873 29828 ft 506 kts 94°
2026-05-04 03:09 39.28021 -79.65363 29369 ft 499 kts 95°
2026-05-04 03:10 39.27693 -79.60930 28959 ft 493 kts 95°
2026-05-04 03:10 39.27340 -79.56558 28535 ft 487 kts 96°
2026-05-04 03:10 39.26979 -79.52225 28126 ft 483 kts 96°
2026-05-04 03:10 39.26631 -79.47985 27711 ft 480 kts 96°
2026-05-04 03:11 39.26282 -79.43714 27313 ft 477 kts 95°
2026-05-04 03:11 39.25936 -79.39461 26913 ft 474 kts 96°
2026-05-04 03:11 39.25592 -79.35248 26521 ft 468 kts 96°
2026-05-04 03:11 39.25250 -79.31089 26122 ft 466 kts 96°
2026-05-04 03:12 39.24907 -79.26941 25732 ft 463 kts 96°
2026-05-04 03:12 39.24565 -79.22824 25339 ft 460 kts 96°
2026-05-04 03:12 39.24224 -79.18786 24966 ft 457 kts 96°
2026-05-04 03:12 39.23877 -79.14715 24576 ft 455 kts 96°
2026-05-04 03:13 39.23532 -79.10681 24194 ft 452 kts 95°
2026-05-04 03:13 39.23187 -79.06660 23814 ft 449 kts 96°
2026-05-04 03:13 39.22850 -79.02723 23410 ft 446 kts 96°
2026-05-04 03:13 39.22508 -78.98754 22996 ft 444 kts 96°
2026-05-04 03:14 39.22165 -78.94825 22594 ft 440 kts 96°
2026-05-04 03:14 39.21797 -78.90930 22229 ft 436 kts 97°
2026-05-04 03:14 39.21417 -78.87062 21831 ft 433 kts 97°
2026-05-04 03:14 39.21039 -78.83229 21504 ft 429 kts 97°
2026-05-04 03:15 39.20667 -78.79424 21138 ft 427 kts 97°
2026-05-04 03:15 39.20297 -78.75635 20758 ft 424 kts 97°
2026-05-04 03:15 39.19930 -78.71872 20415 ft 422 kts 97°
2026-05-04 03:15 39.19563 -78.68125 20060 ft 419 kts 97°
2026-05-04 03:16 39.19201 -78.64449 19698 ft 417 kts 97°
2026-05-04 03:16 39.18834 -78.60744 19349 ft 415 kts 97°
2026-05-04 03:16 39.18470 -78.57064 19015 ft 414 kts 97°
2026-05-04 03:16 39.18105 -78.53395 18667 ft 411 kts 97°
2026-05-04 03:17 39.17741 -78.49746 18321 ft 409 kts 97°
2026-05-04 03:17 39.17379 -78.46115 17933 ft 407 kts 97°
2026-05-04 03:17 39.17018 -78.42506 17543 ft 403 kts 97°
2026-05-04 03:17 39.16660 -78.38949 17164 ft 396 kts 97°
2026-05-04 03:18 39.16249 -78.35471 16817 ft 389 kts 103°
2026-05-04 03:18 39.15518 -78.32148 16520 ft 384 kts 109°
2026-05-04 03:18 39.14652 -78.28891 16203 ft 386 kts 111°
2026-05-04 03:18 39.13765 -78.25619 15890 ft 386 kts 110°
2026-05-04 03:19 39.12915 -78.22395 15571 ft 382 kts 110°
2026-05-04 03:19 39.12088 -78.19152 15256 ft 379 kts 109°
2026-05-04 03:19 39.11282 -78.15931 14948 ft 376 kts 109°
2026-05-04 03:19 39.10486 -78.12734 14636 ft 373 kts 109°
2026-05-04 03:20 39.09691 -78.09559 14335 ft 371 kts 109°
2026-05-04 03:20 39.08891 -78.06418 14029 ft 369 kts 109°
2026-05-04 03:20 39.08088 -78.03284 13715 ft 367 kts 109°
2026-05-04 03:20 39.07292 -78.00172 13374 ft 365 kts 109°
2026-05-04 03:21 39.06510 -77.97120 13066 ft 363 kts 109°
2026-05-04 03:21 39.05721 -77.94042 12756 ft 359 kts 109°
2026-05-04 03:21 39.04946 -77.91018 12454 ft 350 kts 109°
2026-05-04 03:21 39.04193 -77.88086 12158 ft 340 kts 109°
2026-05-04 03:22 39.03461 -77.85237 11901 ft 330 kts 110°
2026-05-04 03:22 39.02747 -77.82462 11628 ft 323 kts 110°
2026-05-04 03:22 39.02048 -77.79749 11387 ft 316 kts 110°
2026-05-04 03:22 39.01588 -77.77970 11218 ft 315 kts 110°
2026-05-04 03:23 39.00675 -77.74436 10880 ft 315 kts 110°
2026-05-04 03:23 39.00217 -77.72663 10716 ft 314 kts 110°
2026-05-04 03:23 38.99294 -77.69100 10373 ft 314 kts 110°
2026-05-04 03:23 38.98607 -77.66447 10113 ft 310 kts 110°
2026-05-04 03:24 38.97868 -77.63880 9847 ft 302 kts 116°
2026-05-04 03:24 38.97309 -77.62257 9678 ft 297 kts 117°
2026-05-04 03:24 38.96445 -77.59862 9418 ft 293 kts 118°
2026-05-04 03:24 38.95582 -77.57483 9183 ft 292 kts 117°
2026-05-04 03:25 38.94727 -77.55108 8956 ft 293 kts 117°
2026-05-04 03:25 38.93867 -77.52692 8734 ft 300 kts 117°
2026-05-04 03:25 38.93008 -77.50263 8500 ft 304 kts 117°
2026-05-04 03:25 38.92134 -77.47786 8248 ft 304 kts 117°
2026-05-04 03:26 38.91265 -77.45325 8046 ft 301 kts 117°
2026-05-04 03:26 38.90328 -77.42962 7767 ft 294 kts 122°
2026-05-04 03:26 38.89324 -77.40691 7389 ft 291 kts 123°
2026-05-04 03:26 38.88323 -77.38451 7062 ft 287 kts 123°
2026-05-04 03:27 38.87340 -77.36227 6715 ft 285 kts 123°
2026-05-04 03:27 38.86374 -77.34021 6363 ft 282 kts 122°
2026-05-04 03:27 38.85427 -77.31854 6008 ft 280 kts 122°
2026-05-04 03:27 38.84477 -77.29690 5613 ft 277 kts 122°
2026-05-04 03:28 38.83528 -77.27575 5467 ft 266 kts 122°
2026-05-04 03:28 38.82622 -77.25565 5374 ft 255 kts 123°
2026-05-04 03:28 38.81752 -77.23639 5284 ft 243 kts 123°
2026-05-04 03:28 38.80920 -77.21795 5135 ft 235 kts 122°
2026-05-04 03:29 38.80115 -77.20011 4923 ft 232 kts 122°
2026-05-04 03:29 38.79309 -77.18227 4649 ft 230 kts 122°
2026-05-04 03:29 38.78507 -77.16452 4373 ft 229 kts 122°
2026-05-04 03:29 38.77713 -77.14695 4106 ft 227 kts 122°
2026-05-04 03:30 38.76917 -77.12942 4020 ft 227 kts 124°
2026-05-04 03:30 38.75808 -77.11591 3982 ft 219 kts 161°
2026-05-04 03:30 38.74340 -77.11215 4002 ft 216 kts 178°
2026-05-04 03:30 38.72824 -77.11123 4002 ft 219 kts 180°
2026-05-04 03:31 38.71298 -77.11060 3993 ft 219 kts 180°
2026-05-04 03:31 38.69779 -77.10992 3985 ft 218 kts 180°
2026-05-04 03:31 38.68265 -77.10918 3983 ft 217 kts 180°
2026-05-04 03:31 38.66755 -77.10838 4003 ft 217 kts 180°
2026-05-04 03:32 38.65270 -77.10758 4007 ft 216 kts 180°
2026-05-04 03:32 38.63765 -77.10676 4012 ft 216 kts 180°
2026-05-04 03:32 38.62267 -77.10606 4015 ft 215 kts 180°
2026-05-04 03:32 38.60820 -77.10176 4005 ft 217 kts 150°
2026-05-04 03:33 38.59698 -77.08877 4015 ft 220 kts 129°
2026-05-04 03:33 38.58978 -77.07143 4018 ft 223 kts 109°
2026-05-04 03:33 38.58745 -77.05181 4013 ft 226 kts 90°
2026-05-04 03:33 38.59095 -77.03226 3995 ft 229 kts 59°
2026-05-04 03:34 38.60266 -77.01951 4014 ft 227 kts 18°
2026-05-04 03:34 38.61818 -77.01712 4027 ft 225 kts 360°
2026-05-04 03:34 38.63348 -77.01685 4004 ft 212 kts 356°
2026-05-04 03:34 38.64777 -77.01750 3789 ft 199 kts 354°
2026-05-04 03:35 38.66118 -77.01863 3560 ft 187 kts 353°
2026-05-04 03:35 38.67380 -77.01984 3296 ft 177 kts 353°
2026-05-04 03:35 38.68571 -77.02102 3065 ft 166 kts 353°
2026-05-04 03:35 38.69677 -77.02212 2899 ft 156 kts 353°
2026-05-04 03:36 38.70763 -77.02323 2656 ft 156 kts 353°
2026-05-04 03:36 38.71829 -77.02430 2442 ft 152 kts 354°
2026-05-04 03:36 38.72880 -77.02536 2244 ft 152 kts 354°
2026-05-04 03:36 38.73936 -77.02643 2069 ft 153 kts 354°
2026-05-04 03:37 38.74998 -77.02750 1858 ft 153 kts 354°
2026-05-04 03:37 38.76061 -77.02857 1655 ft 153 kts 354°
2026-05-04 03:37 38.77105 -77.02962 1456 ft 153 kts 355°
2026-05-04 03:37 38.78164 -77.03063 1264 ft 152 kts 355°
2026-05-04 03:38 38.79251 -77.03148 1084 ft 158 kts 356°
2026-05-04 03:38 38.80344 -77.03268 828 ft 157 kts 353°
2026-05-04 03:38 38.81417 -77.03401 593 ft 151 kts 355°
2026-05-04 03:38 38.82444 -77.03488 403 ft 146 kts 354°
2026-05-04 03:39 38.83454 -77.03600 196 ft 143 kts 354°
2026-05-04 03:39 38.84435 -77.03701 30 ft 144 kts 355°
2026-05-04 03:39 38.85350 -77.03798 22 ft 118 kts 355°
2026-05-04 03:39 38.85943 -77.03857 30 ft 38 kts 355°
2026-05-04 03:40 38.86086 -77.03943 23 ft 23 kts 253°
2026-05-04 03:40 38.85969 -77.04046 25 ft 19 kts 208°
2026-05-04 03:40 38.85924 -77.04183 27 ft 17 kts 266°
2026-05-04 03:40 38.85856 -77.04227 27 ft 12 kts 150°
2026-05-04 03:41 38.85786 -77.04162 28 ft 13 kts 142°
2026-05-04 03:41 38.85716 -77.04094 29 ft 12 kts 142°
2026-05-04 03:41 38.85641 -77.04042 28 ft 13 kts 168°
2026-05-04 03:41 38.85529 -77.04020 27 ft 18 kts 168°
2026-05-04 03:42 38.85401 -77.04002 24 ft 18 kts 176°
2026-05-04 03:42 38.85275 -77.03990 22 ft 18 kts 175°
2026-05-04 03:42 38.85238 -77.03988 21 ft 1 kts 186°
2026-05-04 03:42 38.85216 -77.03993 21 ft 5 kts 185°
2026-05-04 03:43 38.85197 -77.04010 21 ft 4 kts 238°
2026-05-04 03:43 38.85201 -77.04040 21 ft 2 kts 292°
2026-05-04 03:43 38.85206 -77.04057 21 ft 2 kts 292°
2026-05-04 03:43 38.85207 -77.04059 21 ft 0 kts 292°